[[{"header":{"parameterUnit":"m.s-1","parameterCategory":1,"la1":30.2991,"la2":30.254,"lo1":-89.0895,"lo2":-89.0444,"dy":0.0017,"dx":0.0017,"nx":28,"ny":28,"refTime":"2024-09-26T03:00:00:Z","depth":0,"parameterNumber":2,"parameterNumberName":"U-component_of_WINDS"},"data":[0,0,0,0,0,0,0,0,0,0,0,0,0,0,0,0,0,0,0,0,0,0,0,0,0,0,0,0,0,0,0,0,0,0,0,0,0,0,0,0,0,0,0,0,0,0,0,0,0,0,0,0,0,0,0,0,0,0,7.5618,7.5621,0,7.5874,7.5876,7.5879,7.5815,7.581,7.5805,7.5801,7.6064,7.6076,7.6087,0,0,0,0,0,0,0,0,0,0,0,0,0,7.5074,7.5084,7.5618,7.5621,7.5624,7.5873,7.5877,7.588,7.5816,7.581,7.5804,7.5798,7.6061,7.6074,7.6088,0,0,0,0,0,0,0,0,0,0,0,0,0,7.5318,7.5087,7.5617,7.5622,7.5625,7.5872,7.5877,7.5881,7.5818,7.581,7.5802,7.5795,7.6056,7.6073,7.609,7.6349,0,0,7.6144,7.6152,0,0,0,0,0,0,0,0,7.5304,7.5338,7.5618,7.5622,7.5626,7.5805,7.5781,7.6038,7.5819,7.5745,7.58,7.5792,7.5984,7.6007,7.6072,7.6361,7.6372,7.6145,7.6156,7.6164,7.6169,0,0,0,0,0,0,0,7.5287,7.5327,7.5719,7.5622,7.5627,7.5611,7.5638,7.583,7.5904,7.5751,7.5746,7.5778,7.5985,7.6055,7.6077,7.6376,7.6145,7.6161,7.6171,7.6178,7.6886,7.6894,0,0,0,0,0,0,7.5267,7.5313,7.5711,7.5727,7.5443,7.5627,7.5657,7.5755,7.5901,7.5916,7.5784,7.5774,7.6029,7.6057,7.6086,7.6395,7.6164,7.618,7.619,7.6878,7.6888,7.6897,0,0,0,0,0,0,7.5256,7.5303,7.5701,7.5519,7.5568,7.5645,7.5756,7.5764,7.5834,7.5926,7.5939,7.5842,7.6024,7.6062,7.6283,7.6403,7.6188,7.6204,7.6868,7.6881,7.6892,7.7016,0,0,0,0,0,0,7.524,7.5299,7.5399,7.5521,7.5578,7.5893,7.5763,7.5775,7.5864,7.5853,7.5984,7.5998,7.6021,7.6257,7.63,7.6424,7.6217,7.6857,7.6874,7.6888,7.7002,7.7031,7.7057,0,0,0,0,0,7.5221,7.5425,7.5404,7.5453,7.5704,7.59,7.5933,7.5954,7.5874,7.5974,7.6033,7.5994,7.6384,7.628,7.6328,7.6459,7.685,7.6869,7.6887,7.6989,7.7025,7.7056,0,0,0,0,0,0,7.5316,7.5441,7.542,7.5669,7.5774,7.5889,7.6016,7.5992,7.6123,7.6107,7.6129,7.6159,7.6383,7.6444,7.6326,7.6714,7.6605,7.6634,7.6666,7.6702,7.6728,7.6708,7.6232,0,0,0,0,0,7.5366,7.5515,7.5616,7.5827,7.5881,7.5939,7.6026,7.6033,7.6143,7.6187,7.6262,7.6371,7.6517,7.6613,7.6753,7.7011,7.7036,7.7124,7.7151,7.7173,7.7198,7.7334,7.7373,7.6958,7.6958,7.6957,0,0,7.5471,7.5557,7.5651,7.5848,7.593,7.6083,7.5977,7.6145,7.6258,7.6213,7.6424,7.6484,7.6606,7.6845,7.6954,7.6902,7.7318,7.7197,7.7214,7.7227,7.7357,7.7396,7.7431,7.697,7.6968,7.6966,0,0,7.5739,7.5821,7.6003,7.6087,7.6212,7.6249,7.6293,7.6411,7.6448,7.6661,7.6629,7.6764,7.7017,7.7104,7.7181,7.7479,7.7447,7.7525,7.7668,7.78,7.7833,7.7862,7.7964,7.8001,7.7549,7.7549,7.755,0,7.5853,7.6082,7.61,7.6269,7.6355,7.632,7.6504,7.6585,7.675,7.681,7.6749,7.7063,7.7143,7.74,7.7472,7.7538,7.7586,7.7509,7.7827,7.7856,7.7883,7.7981,7.802,7.7558,7.7557,7.7556,7.7555,0,7.6214,7.6373,7.6506,7.6663,7.6765,7.6941,7.6984,7.7085,7.7083,7.7126,7.7341,7.7436,7.7593,7.7655,7.7656,7.7912,7.7875,7.7821,7.7711,7.7931,7.8022,7.8061,7.7569,7.7566,7.7564,7.7562,0,0,7.655,7.6713,7.6761,7.683,7.6964,7.7087,7.7261,7.7412,7.7496,7.7612,7.7755,7.7969,7.7918,7.8006,7.8016,7.8133,7.8357,7.8064,7.8067,7.8112,7.864,7.8677,7.8721,7.8338,7.8345,7.8351,7.8628,0,7.6827,7.713,7.715,7.7424,7.7569,7.7537,7.7687,7.7785,7.783,7.7959,7.8009,7.8158,7.8082,7.8134,7.8249,7.8306,7.8463,7.8287,7.847,7.8476,7.8436,7.8769,7.881,7.9067,7.8665,7.8671,7.8676,0,7.7191,7.7313,7.7601,7.7711,7.7773,7.7908,7.8046,7.8171,7.828,7.8304,7.8401,7.8394,7.857,7.8455,7.8696,7.8575,7.8652,7.8691,7.8701,7.8717,7.8587,7.879,7.9151,7.9187,7.8733,7.8729,7.8725,0,7.7401,7.7639,7.7841,7.7902,7.8036,7.8131,7.8191,7.8294,7.8382,7.8504,7.8561,7.8702,7.8779,7.8888,7.8918,7.8833,7.9157,7.9046,7.918,7.9179,7.9248,7.9242,7.9621,7.9303,7.9303,7.9302,7.9301,0,7.7706,7.7883,7.7936,7.806,7.8256,7.8277,7.8471,7.8525,7.8616,7.8749,7.8731,7.8856,7.889,7.9021,7.9047,7.924,7.9276,7.9299,7.9302,7.9298,7.9295,7.9346,7.9328,7.9312,7.931,7.9308,7.9306,0,7.7974,7.8017,7.8234,7.8343,7.8374,7.8513,7.8606,7.8724,7.8765,7.8934,7.8974,7.904,7.9192,7.9234,7.9418,7.9435,7.9661,7.965,7.9623,7.9622,7.9751,7.9737,8.0174,8.0231,7.9879,7.9882,7.9885,0,7.8164,7.8299,7.842,7.8507,7.8571,7.8713,7.8802,7.8827,7.8921,7.9054,7.9156,7.9306,7.9427,7.9673,7.9736,7.9876,7.9866,8.001,7.9887,7.9877,7.9863,7.9853,7.9865,8.0032,8.0036,8.0039,8.0041,0,7.8496,7.851,7.8639,7.8775,7.8882,7.8991,7.9095,7.9168,7.9208,7.9314,7.9469,7.9563,7.9748,7.9897,8.0037,8.0099,8.0076,8.0079,8.0117,8.0112,8.0089,8.0099,7.9682,8.0069,8.0066,8.0064,8.0063,8.0061,7.8728,7.8844,7.8947,7.909,7.9171,7.9268,7.9383,7.9438,7.9567,7.9719,7.9727,7.9894,7.9997,8.0183,8.0252,8.0383,8.034,8.0396,8.0409,8.0421,8.043,8.0071,8.0409,8.0409,8.0408,8.0407,8.0407,0,7.9055,7.9119,7.9251,7.9396,7.9508,7.9476,7.9589,7.9685,7.9832,7.993,8.0048,8.0225,8.0368,8.0442,8.0583,8.0673,8.0666,8.0709,8.0701,8.0715,8.0463,8.0414,8.0712,8.0712,8.0712,8.0712,8.0712,8.0712,7.9239,7.9432,7.9458,7.969,7.9752,7.9915,7.9982,8.007,8.0147,8.0344,8.0462,8.0509,8.0597,8.0744,8.0873,8.0891,8.0942,8.099,8.1002,8.0764,8.0733,8.0703,8.0657,8.1002,8.1002,8.1242,8.1244,8.1246]},{"header":{"parameterUnit":"m.s-1","parameterCategory":1,"la1":30.2991,"la2":30.254,"lo1":-89.0895,"lo2":-89.0444,"dy":0.0017,"dx":0.0017,"nx":28,"ny":28,"refTime":"2024-09-26T03:00:00:Z","depth":0,"parameterNumber":3,"parameterNumberName":"V-component_of_WINDS"},"data":[0,0,0,0,0,0,0,0,0,0,0,0,0,0,0,0,0,0,0,0,0,0,0,0,0,0,0,0,0,0,0,0,0,0,0,0,0,0,0,0,0,0,0,0,0,0,0,0,0,0,0,0,0,0,0,0,0,0,2.3136,2.3136,0,2.3166,2.3166,2.3167,2.3152,2.3151,2.315,2.315,2.318,2.3181,2.3183,0,0,0,0,0,0,0,0,0,0,0,0,0,2.3063,2.3064,2.3136,2.3136,2.3136,2.3166,2.3166,2.3167,2.3152,2.3151,2.315,2.3149,2.3179,2.3181,2.3183,0,0,0,0,0,0,0,0,0,0,0,0,0,2.3094,2.3065,2.3136,2.3133,2.3133,2.3166,2.3166,2.3167,2.3152,2.3151,2.315,2.3149,2.3179,2.3181,2.3183,2.3221,0,0,2.319,2.3191,0,0,0,0,0,0,0,0,2.3092,2.3097,2.3133,2.3133,2.3133,2.3154,2.3152,2.3185,2.3153,2.3145,2.315,2.3148,2.3172,2.3175,2.3183,2.3222,2.3223,2.319,2.3192,2.3193,2.3193,0,0,0,0,0,0,0,2.309,2.3095,2.3148,2.3133,2.3133,2.3129,2.3132,2.3158,2.3165,2.3145,2.3144,2.3148,2.3172,2.3181,2.3184,2.3224,2.319,2.3192,2.3194,2.3195,2.3294,2.3295,0,0,0,0,0,0,2.3088,2.3094,2.3147,2.3148,2.3109,2.3131,2.3135,2.3148,2.3164,2.3166,2.3149,2.3147,2.3178,2.3181,2.3185,2.3229,2.3193,2.3195,2.3196,2.3292,2.3294,2.3295,0,0,0,0,0,0,2.3087,2.3093,2.3145,2.3121,2.3127,2.3134,2.3149,2.315,2.3159,2.3167,2.3168,2.3157,2.3177,2.3181,2.3212,2.323,2.3196,2.3198,2.3291,2.3293,2.3295,2.3318,0,0,0,0,0,0,2.3085,2.3093,2.3108,2.3121,2.3128,2.3173,2.315,2.3151,2.3163,2.3161,2.3175,2.3176,2.3176,2.3208,2.3214,2.3232,2.32,2.3289,2.3292,2.3294,2.3316,2.3321,2.3325,0,0,0,0,0,2.3082,2.3113,2.3109,2.3115,2.3147,2.3174,2.3178,2.3177,2.3164,2.3179,2.3184,2.3176,2.3227,2.3212,2.3218,2.3237,2.3288,2.3291,2.3294,2.3314,2.332,2.3325,0,0,0,0,0,0,2.3102,2.3115,2.311,2.3146,2.3159,2.3171,2.319,2.3184,2.32,2.3198,2.3196,2.3199,2.323,2.3237,2.3219,2.3273,2.3255,2.326,2.3268,2.3274,2.3278,2.3276,2.3202,0,0,0,0,0,2.311,2.3131,2.3141,2.3172,2.3179,2.3183,2.3195,2.3193,2.3206,2.3211,2.3219,2.3231,2.325,2.3262,2.328,2.3316,2.3319,2.3333,2.3337,2.3341,2.3344,2.3363,2.3369,2.3305,2.3305,2.3305,0,0,2.3128,2.3138,2.3151,2.3176,2.3186,2.3207,2.3188,2.3211,2.3226,2.3215,2.3243,2.3249,2.3263,2.3296,2.3311,2.3302,2.3362,2.3344,2.3347,2.3349,2.3366,2.3372,2.3378,2.3307,2.3306,2.3306,0,0,2.3171,2.3181,2.3207,2.3217,2.3232,2.3234,2.324,2.3253,2.3257,2.3286,2.3277,2.3295,2.3327,2.3337,2.3346,2.3391,2.3384,2.3397,2.342,2.3438,2.3443,2.3448,2.3463,2.3469,2.3401,2.3401,2.3401,0,2.3191,2.3223,2.3221,2.3245,2.3256,2.3246,2.3272,2.3282,2.3301,2.3309,2.3299,2.3338,2.3347,2.3382,2.3393,2.3401,2.3407,2.3396,2.3443,2.3447,2.3452,2.3466,2.3472,2.3402,2.3402,2.3402,2.3402,0,2.3246,2.3268,2.3287,2.3306,2.3319,2.3344,2.3346,2.3359,2.3356,2.3359,2.3388,2.3398,2.3417,2.3425,2.3423,2.3459,2.3453,2.3443,2.3425,2.3459,2.3473,2.3478,2.3404,2.3404,2.3403,2.3403,0,0,2.3303,2.332,2.3327,2.3335,2.335,2.3367,2.339,2.3409,2.342,2.3433,2.3453,2.348,2.347,2.348,2.3479,2.3495,2.3528,2.3482,2.3483,2.349,2.3568,2.3576,2.3582,2.3524,2.3525,2.3525,2.3567,0,2.3346,2.3388,2.3387,2.3426,2.3445,2.3436,2.3456,2.3467,2.347,2.3487,2.349,2.3509,2.3496,2.3502,2.3517,2.3521,2.3544,2.3518,2.3541,2.3542,2.3537,2.3589,2.3597,2.3636,2.3572,2.3573,2.3574,0,2.3403,2.3418,2.3459,2.347,2.3478,2.3496,2.3512,2.3529,2.354,2.3541,2.3552,2.3548,2.3571,2.3552,2.3583,2.3565,2.3574,2.3577,2.3579,2.3581,2.356,2.3592,2.3648,2.3654,2.3582,2.3582,2.3581,0,2.344,2.347,2.3498,2.3505,2.3519,2.3532,2.3538,2.3548,2.3559,2.3573,2.358,2.3596,2.3605,2.3618,2.3617,2.3604,2.3649,2.363,2.3649,2.3649,2.3659,2.3659,2.3717,2.3666,2.3666,2.3666,2.3666,0,2.3488,2.3513,2.3514,2.3532,2.3559,2.3557,2.3584,2.3588,2.3598,2.3615,2.3607,2.3624,2.3622,2.3638,2.3638,2.3663,2.3667,2.3668,2.3668,2.3669,2.3669,2.3675,2.3672,2.3667,2.3667,2.3667,2.3666,0,2.3534,2.3536,2.3565,2.3575,2.3578,2.3598,2.3606,2.3622,2.3624,2.3646,2.3651,2.3654,2.3673,2.3673,2.3695,2.3694,2.3725,2.3722,2.3721,2.372,2.374,2.3738,2.3804,2.3812,2.3756,2.3756,2.3757,0,2.3565,2.3583,2.3595,2.3606,2.3613,2.3631,2.3642,2.364,2.3652,2.3666,2.3679,2.3697,2.3711,2.3741,2.3745,2.3761,2.3758,2.378,2.376,2.376,2.3757,2.3756,2.3757,2.3784,2.3784,2.3785,2.3785,0,2.3619,2.3618,2.3634,2.365,2.3663,2.3676,2.3688,2.3697,2.3697,2.371,2.3728,2.3739,2.376,2.3778,2.3793,2.3798,2.3791,2.3791,2.3796,2.3797,2.3796,2.3796,2.3731,2.379,2.3789,2.3789,2.3789,2.3788,2.3657,2.3673,2.3683,2.3701,2.371,2.372,2.3735,2.3739,2.3755,2.3772,2.377,2.3791,2.38,2.382,2.3827,2.3842,2.3834,2.3842,2.3844,2.3846,2.3848,2.3794,2.3845,2.3845,2.3845,2.3845,2.3845,0,2.371,2.3716,2.3732,2.3749,2.3762,2.3755,2.3767,2.3778,2.3797,2.3807,2.382,2.3841,2.3858,2.3863,2.3878,2.389,2.3887,2.3894,2.3893,2.3894,2.3854,2.3848,2.3896,2.3896,2.3896,2.3896,2.3896,2.3896,2.3739,2.3765,2.3766,2.3796,2.3801,2.3822,2.3829,2.3838,2.3846,2.387,2.3883,2.3886,2.3894,2.391,2.3924,2.3925,2.3931,2.3939,2.3939,2.3902,2.3897,2.3892,2.3886,2.3941,2.3941,2.3977,2.3977,2.3978]}]]